小惑星A/2019 U6

A/2019 U6

English version
Home page
Updated on February 19, 2020

---------------------------------------------------------------------

・ プロフィール

発見日 2019年10月31日
発見光度 20.5等
発見者 Mt. Lemmon Survey

・ 軌道要素

Epoch 2020 May 31.0 TT = JDT 2459000.5
T 2020 June 18.82296 TT                                 Bell
q   0.9142512            (2000.0)            P               Q
z  +0.0023116      Peri.  329.66053     -0.68858193     +0.06105148
 +/-0.0000017      Node   235.70592     -0.35185192     -0.89942343
e   0.9978866      Incl.   61.00161     -0.63407819     +0.43279349
H   14.5
From 78 observations 2018 Nov. 6-2020 Feb. 5, mean residual 0".3.

・ 星図

・ 光度変化

        m1 = 11.0 + 5 logΔ + 10.0 log r

---------------------------------------------------------------------

軌道要素はM.P.E.C. 2020-C98に掲載されたものです。
星図はステラナビゲータ Ver.10 (アストロアーツ) で作成したものです。
光度グラフはComet for Windowsで作成したものです。

---------------------------------------------------------------------

Copyright(C) Seiichi Yoshida (comet@aerith.net). All rights reserved.